Location: Terra Rouge Observatory
(46.0000°N, 62.7500°W)
Time: 07:51:20
(UTC-04:00)

Daily predictions for brighter satellites

Satellite Brightness Start Highest point End
(mag) Time Altitude Azimuth Time Altitude Azimuth Time Altitude Azimuth
USA 32 4.2 16:56:04 10° SSE 17:01:06 51° E 17:06:09 10° NNE
Cosmos 2082 Rocket 2.9 16:56:39 10° N 17:01:40 31° NE 17:06:41 10° ESE
Cosmos 1125 Rocket 4.5 16:58:06 10° SW 17:03:13 48° WNW 17:08:22 10° NNE
COSMOS 2487 3.5 17:00:18 10° N 17:03:24 26° ENE 17:06:29 10° ESE
Meteor 1-5 Rocket 4.3 16:57:57 10° NNW 17:03:26 85° WSW 17:09:03 10° S
CZ-2C R/B 3.6 17:01:45 10° NNE 17:06:14 80° ESE 17:10:44 10° SSW
Cosmos 1544 Rocket 3.5 17:07:31 10° N 17:12:01 75° E 17:16:29 10° SSE
Abrixas 2.3 17:11:02 10° WNW 17:14:01 81° NNE 17:16:58 10° ESE
Cosmos 1743 4.2 17:13:27 10° NNE 17:16:08 18° ENE 17:18:47 10° ESE
COSMO-SKYMED 1 4.1 17:14:38 10° NE 17:17:29 17° E 17:20:20 10° SE
Cosmos 2263 Rocket 4.2 17:14:08 10° W 17:18:26 22° NW 17:22:47 10° N
Cosmos 1500 3.8 17:15:14 10° N 17:18:47 34° ENE 17:22:19 10° SE
Cosmos 1975 Rocket 3.7 17:14:53 10° SSW 17:19:08 59° W 17:23:26 10° N
IDEFIX/ARIANE 42P 2.5 17:16:08 10° SSE 17:21:15 64° ENE 17:26:24 10° N
Cosmos 1975 2.9 17:21:21 10° N 17:25:21 52° ENE 17:29:18 10° SSE
MSX 4.0 17:20:01 10° SE 17:25:32 51° ENE 17:31:05 10° N
Thor Agena Rocket 3.7 17:21:07 10° NNE 17:26:16 56° ESE 17:31:25 10° S
BREEZE-M DEB (TANK) 4.4 17:17:15 10° W 17:27:02 60° N 17:29:55 15° ENE
Meteor 1-12 Rocket 4.3 17:21:38 10° N 17:27:28 76° ENE 17:33:21 10° SSE
Cosmos 1484 Rocket 3.6 17:25:48 10° SE 17:28:59 27° ENE 17:32:10 10° N
MOS 1 4.3 17:24:49 10° SSE 17:30:28 83° ENE 17:36:10 10° NNW
CZ-4 R/B 1.5 17:26:52 10° SSE 17:31:02 83° WSW 17:35:11 10° NNW
Cosmos 864 Rocket 4.5 17:24:47 10° N 17:31:07 82° E 17:37:27 10° S
Cosmos 2251 Rocket 4.2 17:26:32 10° NNW 17:31:49 60° WSW 17:37:01 10° S
Cosmos 1536 Rocket 3.6 17:31:21 10° S 17:35:47 67° E 17:40:15 10° NNE
Cosmos 921 Rocket 4.0 17:33:39 10° SSE 17:37:12 26° E 17:39:25 17° NE
Nadezhda 3 Rocket 4.3 17:32:54 10° SSE 17:38:41 43° E 17:44:33 10° NNE
SMAP 3.1 17:34:18 10° SSE 17:38:57 89° W 17:43:38 10° NNW
SL-24 DEB 4.4 17:35:26 10° NNE 17:40:03 50° E 17:44:36 10° SSE
SL-8 R/B 3.7 17:36:08 10° WSW 17:40:53 76° SSE 17:44:15 20° ENE
Cosmos 1844 Rocket 3.5 17:36:25 10° SW 17:41:51 49° WNW 17:47:20 10° NNE
ISS -2.3 17:40:32 10° W 17:43:37 36° NNW 17:45:16 21° NE
YAOGAN 1 2.6 17:40:35 10° SSE 17:44:54 84° WSW 17:49:16 10° NNW
SJ-12 4.4 17:43:31 10° S 17:47:34 64° WSW 17:51:42 10° NNW
CORIOLIS 4.3 17:46:40 10° SSE 17:52:04 80° WSW 17:57:30 10° NNW
Cosmos 1812 3.4 17:51:14 10° SSW 17:55:01 57° WNW 17:58:50 10° N
USA 234 3.2 17:50:27 17° NE 17:55:42 82° SE 18:02:14 10° SW
GRACE-2 4.3 17:57:09 10° SSE 17:59:29 41° ESE 17:59:29 41° ESE
GRACE-1 4.2 17:57:34 10° SSE 17:59:58 43° ESE 17:59:58 43° ESE
Cosmos 1455 Rocket 4.4 17:56:46 10° NNW 18:00:57 42° W 18:05:08 10° SSW
BREEZE M DEB (TANK) 2.9 18:00:12 10° WNW 18:03:22 72° NNE 18:09:22 18° ESE
SKYMED 2 3.7 18:02:59 19° NNE 18:05:54 51° E 18:10:07 10° S
NOSS 3-4 (A) 3.8 18:02:09 10° NW 18:09:00 60° NE 18:16:02 11° SE
NOSS 3-4 (C) 3.8 18:02:15 10° NW 18:09:05 59° NE 18:16:01 11° SE
NOAA 12 4.3 18:06:16 10° SE 18:11:16 46° ENE 18:16:16 10° N
Cosmos 2297 3.6 18:06:30 10° SSW 18:12:06 71° ESE 18:15:54 21° NNE
Cosmos 1238 Rocket 4.4 18:10:17 10° SW 18:12:49 25° WNW 18:15:34 10° NNW
Tiangong 1 2.0 18:12:20 10° SW 18:15:07 34° SSE 18:15:19 33° SSE
Intercosmos 25 2.7 18:12:11 10° N 18:15:26 85° E 18:18:44 10° S
Okean 1 4.3 18:11:34 10° SSW 18:15:29 48° WNW 18:19:28 10° N
Cosmos 407 Rocket 4.0 18:11:37 10° N 18:16:21 35° ENE 18:16:50 35° ENE
Cosmos 2056 Rocket 4.1 18:12:38 10° SSE 18:17:25 34° ESE 18:17:54 33° E
NOSS 3-3 (A) 4.3 18:11:25 10° SW 18:17:40 70° NW 18:22:32 20° NNE
NOSS 3-3 (C) 4.2 18:11:31 10° SW 18:17:46 71° NW 18:22:38 20° NNE
Okean 1-7 Rocket 3.5 18:17:27 10° S 18:21:57 76° E 18:24:55 21° NNE
Timation 1 Rocket 4.3 18:16:11 10° SSW 18:22:05 70° ESE 18:25:28 27° NE
Cosmos 2278 Rocket 2.9 18:17:30 10° SW 18:22:59 51° WNW 18:27:56 13° NNE
Cosmos 1346 Rocket 3.4 18:20:06 10° SSW 18:23:56 56° WNW 18:27:05 15° N
Cosmos 1934 Rocket 4.0 18:18:33 10° N 18:24:41 59° ENE 18:30:53 10° SSE
CZ-2C R/B 4.2 18:20:27 10° SSW 18:25:02 35° W 18:29:45 10° NNW
METEOR-M 4.1 18:25:09 10° SSE 18:30:22 57° ENE 18:35:36 10° N
Cosmos 1535 Rocket 4.4 18:24:09 10° N 18:30:30 81° E 18:36:43 10° S
Cosmos 1624 Rocket 4.2 18:25:37 10° S 18:30:34 47° ESE 18:31:03 45° E
ERBS 4.5 18:30:47 10° NNW 18:32:04 17° NNW 18:32:04 17° NNW
BREEZE-M R/B 3.8 18:25:24 10° WSW 18:35:12 85° NNW 18:36:49 47° ENE
Cosmos 1371 Rocket 4.0 18:30:36 10° S 18:35:53 64° ESE 18:37:25 45° NE
Meteor 2-8 Rocket 4.4 18:31:41 10° S 18:37:35 56° E 18:40:41 28° NNE
BREEZE M DEB (TANK) 2.5 18:33:38 10° SW 18:40:10 57° SSE 18:40:11 57° SSE
CZ-3B DEB 3.0 18:35:31 10° WSW 18:40:11 62° NNW 18:45:33 29° NE
Cosmos 1833 Rocket 3.2 18:35:33 10° NNW 18:41:07 61° WSW 18:46:38 10° S
BREEZE-M DEB (TANK) 3.3 18:35:28 10° WNW 18:41:21 51° N 18:41:59 47° NE
GEOS 3 Rocket 3.4 18:42:48 34° SE 18:45:06 88° NE 18:50:15 10° NW
Cosmos 2082 Rocket 3.1 18:40:32 10° NW 18:45:58 48° WSW 18:51:23 10° S
Cosmos 1606 Rocket 3.4 18:44:11 10° N 18:48:41 86° ENE 18:53:10 10° S
FengYun 1-2 T 4.4 18:52:10 51° NE 18:52:10 51° NE 18:56:55 10° N
Cosmos 1743 4.2 18:48:32 10° NNW 18:52:09 37° W 18:55:42 10° SSW
COSMO-SKYMED 1 3.3 18:51:35 24° N 18:53:56 51° WNW 18:58:08 10° SSW
Cosmos 1821 Rocket 4.2 18:49:28 10° NNW 18:55:32 68° W 19:01:34 10° S
Meteor 1-28 Rocket 4.3 19:01:05 40° SW 19:01:05 40° SW 19:03:38 10° SSW
Meteor 1-15 Rocket 4.3 18:59:23 10° NNW 19:05:20 83° W 19:11:09 10° S
Cosmos 1605 Rocket 3.8 18:59:52 10° N 19:06:13 84° E 19:12:26 10° S
Cosmos 1190 Rocket 4.0 19:00:59 10° NNW 19:06:15 78° WSW 19:07:24 55° S
NOSS 2-1 (D) 4.3 19:06:39 10° SW 19:09:43 47° W 19:09:43 47° W
NOSS 2-1 (C) 4.3 19:07:18 10° SW 19:10:23 47° W 19:10:23 47° W
Cosmos 1025 Rocket 3.9 19:09:24 10° SSW 19:13:38 48° WNW 19:13:51 47° WNW
ISS -0.1 19:17:39 10° WNW 19:17:57 12° NW 19:17:57 12° NW
Meteor 2-4 Rocket 4.4 19:22:07 10° SSW 19:27:17 48° WNW 19:29:02 35° NNW
Cosmos 2369 Rocket 4.5 19:22:24 10° S 19:22:49 12° S 19:22:49 12° S
CZ-3A R/B 4.0 19:29:28 10° WNW 19:36:54 36° N 19:36:54 36° N
USA 234 3.9 19:37:48 44° N 19:38:26 45° NNW 19:44:34 10° W
FALCON 9 R/B 4.0 19:46:10 10° W 19:59:33 35° SSW 20:00:04 35° SSW
CZ-3B DEB 4.5 21:08:58 10° WNW 21:13:40 43° NW 21:13:40 43° NW
